LVLYQ SABE-SLVR

Flight info

Callsign LVLYQ
Flight time 2h 40m
Altitude 36000
Route BIVAM4B BIVAM UN775 PILCO UM784 BOLET UL404 KABOM
Aircraft LJ35/M-SGHRWXY/SB1

Departure

Time 2026-04-22 23:03
Airport Aeroparque Jorge Newbery (SABE)

Arrival

Time 2026-04-23 01:43
Airport Viru Viru International Airport (SLVR)
Time Latitude Longitude Altitude Speed Heading
2026-04-22 22:40 -34.56403 -58.41032 21 ft 0 kts 214°
2026-04-22 22:56 -34.56406 -58.41034 21 ft 0 kts 213°
2026-04-22 22:59 -34.56426 -58.41061 23 ft 8 kts 271°
2026-04-22 22:59 -34.56391 -58.41127 21 ft 12 kts 303°
2026-04-22 22:59 -34.56335 -58.41231 24 ft 17 kts 302°
2026-04-22 23:00 -34.56258 -58.41365 21 ft 22 kts 307°
2026-04-22 23:00 -34.56179 -58.41478 21 ft 14 kts 349°
2026-04-22 23:00 -34.56083 -58.41412 21 ft 19 kts 32°
2026-04-22 23:00 -34.55961 -58.41311 21 ft 24 kts 30°
2026-04-22 23:01 -34.55891 -58.41370 21 ft 15 kts 299°
2026-04-22 23:01 -34.55838 -58.41502 21 ft 20 kts 295°
2026-04-22 23:01 -34.55770 -58.41668 21 ft 24 kts 290°
2026-04-22 23:01 -34.55676 -58.41857 21 ft 28 kts 304°
2026-04-22 23:02 -34.55561 -58.42060 21 ft 31 kts 307°
2026-04-22 23:02 -34.55426 -58.42282 21 ft 34 kts 305°
2026-04-22 23:02 -34.55361 -58.42452 21 ft 13 kts 265°
2026-04-22 23:02 -34.55410 -58.42497 21 ft 7 kts 126°
2026-04-22 23:03 -34.55438 -58.42449 23 ft 38 kts 124°
2026-04-22 23:03 -34.55852 -58.41700 19 ft 172 kts 123°
2026-04-22 23:03 -34.56632 -58.40282 1002 ft 217 kts 125°
2026-04-22 23:03 -34.57525 -58.38616 2103 ft 261 kts 123°
2026-04-22 23:04 -34.57841 -58.36341 3376 ft 283 kts 85°
2026-04-22 23:04 -34.57178 -58.34058 4901 ft 299 kts 61°
2026-04-22 23:04 -34.55720 -58.32234 6330 ft 306 kts 32°
2026-04-22 23:04 -34.53785 -58.31374 8131 ft 293 kts
2026-04-22 23:05 -34.51754 -58.30980 9718 ft 309 kts 358°
2026-04-22 23:05 -34.49685 -58.31250 11221 ft 302 kts 347°
2026-04-22 23:05 -34.47585 -58.31538 13024 ft 305 kts 348°
2026-04-22 23:05 -34.45435 -58.31739 14689 ft 313 kts 348°
2026-04-22 23:06 -34.43395 -58.32412 16308 ft 305 kts 330°
2026-04-22 23:06 -34.41530 -58.33646 17969 ft 306 kts 324°
2026-04-22 23:06 -34.39651 -58.34908 19410 ft 311 kts 324°
2026-04-22 23:06 -34.37809 -58.36296 20730 ft 314 kts 320°
2026-04-22 23:07 -34.35986 -58.37815 22064 ft 319 kts 320°
2026-04-22 23:07 -34.34143 -58.39307 23314 ft 326 kts 321°
2026-04-22 23:07 -34.32209 -58.40809 24420 ft 331 kts 321°
2026-04-22 23:07 -34.30262 -58.42326 25468 ft 335 kts 320°
2026-04-22 23:08 -34.28294 -58.43885 26484 ft 339 kts 320°
2026-04-22 23:08 -34.26272 -58.45493 27143 ft 355 kts 320°
2026-04-22 23:08 -34.24179 -58.47137 28044 ft 360 kts 320°
2026-04-22 23:08 -34.22092 -58.48769 28910 ft 364 kts 320°
2026-04-22 23:09 -34.19944 -58.50460 29723 ft 369 kts 320°
2026-04-22 23:09 -34.17834 -58.52188 30484 ft 367 kts 314°
2026-04-22 23:09 -34.16049 -58.54305 31410 ft 355 kts 304°
2026-04-22 23:09 -34.14675 -58.56731 32359 ft 344 kts 295°
2026-04-22 23:10 -34.13733 -58.59359 33297 ft 334 kts 285°
2026-04-22 23:10 -34.13235 -58.62015 34185 ft 326 kts 277°
2026-04-22 23:10 -34.13140 -58.64740 34959 ft 321 kts 269°
2026-04-22 23:10 -34.13407 -58.67406 35726 ft 316 kts 265°
2026-04-22 23:11 -34.13718 -58.70005 36476 ft 310 kts 266°
2026-04-22 23:11 -34.14005 -58.72525 37200 ft 304 kts 266°
2026-04-22 23:11 -34.14283 -58.75123 37170 ft 319 kts 269°
2026-04-22 23:11 -34.14130 -58.77846 37139 ft 331 kts 280°
2026-04-22 23:12 -34.13374 -58.80526 37137 ft 346 kts 292°
2026-04-22 23:12 -34.11964 -58.82995 37146 ft 366 kts 306°
2026-04-22 23:12 -34.09961 -58.84963 37171 ft 388 kts 317°
2026-04-22 23:12 -34.07656 -58.86694 37220 ft 395 kts 319°
2026-04-22 23:13 -34.05256 -58.88465 36691 ft 407 kts 319°
2026-04-22 23:13 -34.02831 -58.90269 36209 ft 411 kts 319°
2026-04-22 23:13 -33.98054 -58.93816 36301 ft 408 kts 321°
2026-04-22 23:14 -33.95386 -58.95158 36303 ft 423 kts 332°
2026-04-22 23:14 -33.92546 -58.96132 36308 ft 424 kts 333°
2026-04-22 23:14 -33.86858 -58.98074 36306 ft 424 kts 333°
2026-04-22 23:15 -33.81192 -59.00024 36306 ft 424 kts 333°
2026-04-22 23:15 -33.75554 -59.01951 36301 ft 423 kts 333°
2026-04-22 23:16 -33.69882 -59.03893 36304 ft 423 kts 333°
2026-04-22 23:16 -33.64218 -59.05827 36298 ft 422 kts 333°
2026-04-22 23:17 -33.58585 -59.07749 36297 ft 422 kts 333°
2026-04-22 23:17 -33.52922 -59.09677 36296 ft 422 kts 333°
2026-04-22 23:18 -33.47296 -59.11591 36298 ft 422 kts 333°
2026-04-22 23:18 -33.41637 -59.13513 36304 ft 421 kts 333°
2026-04-22 23:19 -33.36024 -59.15418 36302 ft 421 kts 333°
2026-04-22 23:19 -33.31329 -59.17008 36302 ft 421 kts 333°
2026-04-22 23:20 -33.24761 -59.19231 36302 ft 421 kts 333°
2026-04-22 23:20 -33.19119 -59.21137 36301 ft 420 kts 333°
2026-04-22 23:21 -33.14435 -59.22718 36303 ft 420 kts 333°
2026-04-22 23:21 -33.08832 -59.24606 36304 ft 420 kts 333°
2026-04-22 23:22 -33.03194 -59.26504 36306 ft 420 kts 333°
2026-04-22 23:22 -32.97569 -59.28394 36306 ft 419 kts 333°
2026-04-22 23:23 -32.91978 -59.30272 36311 ft 419 kts 333°
2026-04-22 23:23 -32.86341 -59.32161 36312 ft 419 kts 332°
2026-04-22 23:24 -32.80757 -59.34032 36309 ft 419 kts 332°
2026-04-22 23:24 -32.75137 -59.35909 36310 ft 418 kts 332°
2026-04-22 23:25 -32.69520 -59.37787 36311 ft 419 kts 332°
2026-04-22 23:25 -32.63940 -59.39646 36313 ft 418 kts 332°
2026-04-22 23:26 -32.58319 -59.41519 36313 ft 418 kts 332°
2026-04-22 23:26 -32.52737 -59.43376 36314 ft 418 kts 332°
2026-04-22 23:27 -32.47135 -59.45237 36315 ft 418 kts 332°
2026-04-22 23:27 -32.41524 -59.47085 36315 ft 419 kts 333°
2026-04-22 23:28 -32.35906 -59.48856 36319 ft 419 kts 333°
2026-04-22 23:28 -32.30281 -59.50666 36315 ft 418 kts 333°
2026-04-22 23:29 -32.24788 -59.52401 36335 ft 403 kts 332°
2026-04-22 23:29 -32.19380 -59.54145 36326 ft 402 kts 332°
2026-04-22 23:30 -32.13955 -59.55863 36323 ft 402 kts 332°
2026-04-22 23:30 -32.08586 -59.57573 36329 ft 402 kts 332°
2026-04-22 23:31 -32.03159 -59.59296 36324 ft 402 kts 333°
2026-04-22 23:31 -31.97776 -59.61003 36328 ft 402 kts 333°
2026-04-22 23:32 -31.92391 -59.62709 36330 ft 402 kts 333°
2026-04-22 23:32 -31.86968 -59.64425 36327 ft 402 kts 333°
2026-04-22 23:33 -31.81591 -59.66124 36330 ft 402 kts 333°
2026-04-22 23:33 -31.76172 -59.67834 36328 ft 402 kts 333°
2026-04-22 23:34 -31.70779 -59.69534 36328 ft 402 kts 333°
2026-04-22 23:34 -31.65359 -59.71241 36328 ft 403 kts 333°
2026-04-22 23:35 -31.59968 -59.72936 36328 ft 403 kts 333°
2026-04-22 23:35 -31.54537 -59.74642 36331 ft 403 kts 333°
2026-04-22 23:36 -31.49126 -59.76339 36330 ft 403 kts 333°
2026-04-22 23:36 -31.43702 -59.78039 36328 ft 403 kts 333°
2026-04-22 23:37 -31.38309 -59.79727 36330 ft 403 kts 333°
2026-04-22 23:37 -31.32870 -59.81427 36329 ft 403 kts 333°
2026-04-22 23:38 -31.27475 -59.83112 36326 ft 403 kts 333°
2026-04-22 23:38 -31.22066 -59.84798 36327 ft 404 kts 333°
2026-04-22 23:39 -31.16626 -59.86493 36331 ft 404 kts 333°
2026-04-22 23:39 -31.11217 -59.88176 36327 ft 404 kts 333°
2026-04-22 23:40 -31.05767 -59.89869 36328 ft 404 kts 333°
2026-04-22 23:40 -31.00350 -59.91555 36326 ft 404 kts 333°
2026-04-22 23:41 -30.94912 -59.93284 36326 ft 404 kts 333°
2026-04-22 23:41 -30.89513 -59.94982 36328 ft 404 kts 333°
2026-04-22 23:42 -30.84072 -59.96697 36324 ft 404 kts 333°
2026-04-22 23:42 -30.78633 -59.98407 36327 ft 404 kts 333°
2026-04-22 23:43 -30.73216 -60.00110 36330 ft 405 kts 333°
2026-04-22 23:43 -30.67768 -60.01819 36329 ft 405 kts 333°
2026-04-22 23:44 -30.62308 -60.03531 36325 ft 406 kts 334°
2026-04-22 23:44 -30.56867 -60.05235 36330 ft 406 kts 334°
2026-04-22 23:45 -30.51404 -60.06943 36330 ft 406 kts 334°
2026-04-22 23:45 -30.45943 -60.08649 36329 ft 407 kts 334°
2026-04-22 23:46 -30.40501 -60.10347 36329 ft 407 kts 334°
2026-04-22 23:46 -30.35012 -60.12057 36328 ft 407 kts 334°
2026-04-22 23:47 -30.29555 -60.13756 36331 ft 408 kts 334°
2026-04-22 23:47 -30.24068 -60.15463 36327 ft 408 kts 334°
2026-04-22 23:48 -30.18596 -60.17162 36331 ft 408 kts 334°
2026-04-22 23:48 -30.13103 -60.18868 36323 ft 409 kts 334°
2026-04-22 23:49 -30.07592 -60.20577 36321 ft 409 kts 334°
2026-04-22 23:49 -30.02078 -60.22285 36322 ft 409 kts 334°
2026-04-22 23:50 -29.96601 -60.23979 36322 ft 410 kts 334°
2026-04-22 23:50 -29.91082 -60.25685 36320 ft 410 kts 334°
2026-04-22 23:51 -29.85562 -60.27388 36321 ft 411 kts 334°
2026-04-22 23:51 -29.80058 -60.29085 36316 ft 411 kts 334°
2026-04-22 23:52 -29.74523 -60.30790 36309 ft 411 kts 334°
2026-04-22 23:52 -29.68982 -60.32494 36315 ft 412 kts 335°
2026-04-22 23:53 -29.63433 -60.34199 36305 ft 412 kts 335°
2026-04-22 23:53 -29.57926 -60.35889 36308 ft 412 kts 335°
2026-04-22 23:54 -29.52360 -60.37595 36305 ft 413 kts 335°
2026-04-22 23:54 -29.46836 -60.39287 36303 ft 413 kts 335°
2026-04-22 23:55 -29.41280 -60.40986 36305 ft 413 kts 335°
2026-04-22 23:55 -29.35711 -60.42686 36305 ft 414 kts 335°
2026-04-22 23:56 -29.30147 -60.44383 36300 ft 414 kts 335°
2026-04-22 23:56 -29.24605 -60.46072 36297 ft 414 kts 335°
2026-04-22 23:57 -29.19017 -60.47773 36295 ft 414 kts 335°
2026-04-22 23:57 -29.13431 -60.49470 36296 ft 415 kts 335°
2026-04-22 23:58 -29.07884 -60.51155 36294 ft 415 kts 335°
2026-04-22 23:58 -29.02287 -60.52852 36294 ft 415 kts 335°
2026-04-22 23:59 -28.96716 -60.54540 36290 ft 416 kts 335°
2026-04-22 23:59 -28.91105 -60.56238 36296 ft 416 kts 335°
2026-04-23 00:00 -28.83647 -60.58492 36293 ft 417 kts 336°
2026-04-23 00:01 -28.77121 -60.60462 36289 ft 417 kts 336°
2026-04-23 00:01 -28.71481 -60.62142 36283 ft 418 kts 336°
2026-04-23 00:02 -28.65896 -60.63806 36282 ft 418 kts 336°
2026-04-23 00:02 -28.60257 -60.65485 36286 ft 418 kts 336°
2026-04-23 00:03 -28.54611 -60.67163 36281 ft 419 kts 336°
2026-04-23 00:03 -28.48960 -60.68841 36277 ft 419 kts 336°
2026-04-23 00:04 -28.43347 -60.70506 36277 ft 419 kts 336°
2026-04-23 00:04 -28.37690 -60.72182 36279 ft 419 kts 336°
2026-04-23 00:05 -28.32040 -60.73854 36278 ft 419 kts 336°
2026-04-23 00:05 -28.26418 -60.75516 36281 ft 419 kts 336°
2026-04-23 00:06 -28.20751 -60.77189 36276 ft 420 kts 336°
2026-04-23 00:06 -28.15120 -60.78851 36274 ft 420 kts 337°
2026-04-23 00:07 -28.09451 -60.80521 36272 ft 420 kts 337°
2026-04-23 00:07 -28.03821 -60.82178 36274 ft 420 kts 337°
2026-04-23 00:08 -27.99096 -60.83568 36273 ft 420 kts 337°
2026-04-23 00:08 -27.92479 -60.85511 36275 ft 420 kts 337°
2026-04-23 00:09 -27.86832 -60.87168 36272 ft 421 kts 337°
2026-04-23 00:09 -27.82110 -60.88552 36269 ft 421 kts 337°
2026-04-23 00:10 -27.76425 -60.90217 36270 ft 421 kts 337°
2026-04-23 00:10 -27.70729 -60.91883 36268 ft 422 kts 337°
2026-04-23 00:11 -27.65069 -60.93536 36271 ft 422 kts 337°
2026-04-23 00:11 -27.59407 -60.95189 36271 ft 422 kts 337°
2026-04-23 00:12 -27.53742 -60.96906 36267 ft 421 kts 336°
2026-04-23 00:12 -27.48085 -60.98658 36265 ft 422 kts 337°
2026-04-23 00:13 -27.42442 -61.00374 36268 ft 422 kts 337°
2026-04-23 00:13 -27.36762 -61.02117 36263 ft 422 kts 337°
2026-04-23 00:14 -27.31095 -61.03845 36265 ft 422 kts 337°
2026-04-23 00:14 -27.25447 -61.05561 36264 ft 423 kts 338°
2026-04-23 00:15 -27.19731 -61.07205 36269 ft 423 kts 338°
2026-04-23 00:15 -27.14060 -61.08877 36260 ft 423 kts 338°
2026-04-23 00:16 -27.08350 -61.10539 36259 ft 423 kts 338°
2026-04-23 00:16 -27.02639 -61.12208 36259 ft 423 kts 338°
2026-04-23 00:17 -26.96971 -61.13859 36257 ft 423 kts 338°
2026-04-23 00:17 -26.91253 -61.15525 36259 ft 424 kts 338°
2026-04-23 00:18 -26.85538 -61.17187 36259 ft 424 kts 338°
2026-04-23 00:18 -26.79850 -61.18840 36257 ft 424 kts 338°
2026-04-23 00:19 -26.74118 -61.20504 36256 ft 424 kts 338°
2026-04-23 00:19 -26.68390 -61.22165 36256 ft 425 kts 338°
2026-04-23 00:20 -26.62696 -61.23815 36254 ft 425 kts 338°
2026-04-23 00:20 -26.56958 -61.25475 36252 ft 425 kts 338°
2026-04-23 00:21 -26.51265 -61.27121 36252 ft 425 kts 338°
2026-04-23 00:21 -26.45518 -61.28781 36251 ft 425 kts 339°
2026-04-23 00:22 -26.39815 -61.30427 36251 ft 426 kts 339°
2026-04-23 00:22 -26.34067 -61.32084 36249 ft 426 kts 339°
2026-04-23 00:23 -26.28320 -61.33739 36247 ft 426 kts 339°
2026-04-23 00:23 -26.22610 -61.35381 36249 ft 426 kts 339°
2026-04-23 00:24 -26.16848 -61.37037 36247 ft 426 kts 339°
2026-04-23 00:24 -26.11099 -61.38687 36249 ft 426 kts 339°
2026-04-23 00:25 -26.05376 -61.40329 36248 ft 427 kts 339°
2026-04-23 00:25 -25.99612 -61.41980 36250 ft 427 kts 339°
2026-04-23 00:26 -25.93839 -61.43632 36245 ft 427 kts 339°
2026-04-23 00:26 -25.88117 -61.45268 36250 ft 427 kts 339°
2026-04-23 00:27 -25.82348 -61.46916 36245 ft 428 kts 339°
2026-04-23 00:27 -25.76606 -61.48555 36247 ft 428 kts 339°
2026-04-23 00:28 -25.70823 -61.50203 36247 ft 428 kts 339°
2026-04-23 00:28 -25.65086 -61.51837 36249 ft 428 kts 339°
2026-04-23 00:29 -25.59306 -61.53481 36247 ft 428 kts 340°
2026-04-23 00:29 -25.53549 -61.55117 36245 ft 429 kts 340°
2026-04-23 00:30 -25.47770 -61.56758 36244 ft 429 kts 340°
2026-04-23 00:30 -25.41974 -61.58402 36245 ft 429 kts 340°
2026-04-23 00:31 -25.36196 -61.60039 36245 ft 429 kts 340°
2026-04-23 00:31 -25.30389 -61.61683 36241 ft 430 kts 340°
2026-04-23 00:32 -25.24621 -61.63314 36242 ft 430 kts 340°
2026-04-23 00:32 -25.18805 -61.64958 36242 ft 430 kts 340°
2026-04-23 00:33 -25.12994 -61.66598 36242 ft 430 kts 340°
2026-04-23 00:33 -25.07205 -61.68230 36242 ft 430 kts 340°
2026-04-23 00:34 -25.01426 -61.69858 36240 ft 431 kts 340°
2026-04-23 00:34 -24.95591 -61.71500 36240 ft 431 kts 340°
2026-04-23 00:35 -24.89814 -61.73124 36240 ft 431 kts 340°
2026-04-23 00:35 -24.83994 -61.74759 36239 ft 431 kts 341°
2026-04-23 00:36 -24.78165 -61.76395 36241 ft 431 kts 341°
2026-04-23 00:36 -24.72368 -61.78020 36240 ft 432 kts 341°
2026-04-23 00:37 -24.66530 -61.79656 36239 ft 432 kts 341°
2026-04-23 00:37 -24.60686 -61.81292 36241 ft 432 kts 341°
2026-04-23 00:38 -24.54890 -61.82912 36239 ft 433 kts 341°
2026-04-23 00:38 -24.49034 -61.84548 36240 ft 433 kts 341°
2026-04-23 00:39 -24.43188 -61.86180 36241 ft 433 kts 341°
2026-04-23 00:39 -24.37380 -61.87799 36239 ft 433 kts 341°
2026-04-23 00:40 -24.31533 -61.89428 36236 ft 434 kts 341°
2026-04-23 00:40 -24.25678 -61.91057 36237 ft 434 kts 341°
2026-04-23 00:41 -24.19845 -61.92679 36238 ft 434 kts 341°
2026-04-23 00:41 -24.13960 -61.94313 36231 ft 434 kts 341°
2026-04-23 00:42 -24.08091 -61.95942 36233 ft 435 kts 341°
2026-04-23 00:42 -24.02267 -61.97555 36235 ft 435 kts 342°
2026-04-23 00:43 -23.96396 -61.99180 36236 ft 435 kts 342°
2026-04-23 00:43 -23.90497 -62.00812 36230 ft 436 kts 342°
2026-04-23 00:44 -23.84599 -62.02441 36231 ft 436 kts 342°
2026-04-23 00:44 -23.78737 -62.04059 36233 ft 437 kts 342°
2026-04-23 00:45 -23.72839 -62.05686 36230 ft 437 kts 342°
2026-04-23 00:45 -23.66963 -62.07305 36230 ft 438 kts 342°
2026-04-23 00:46 -23.61047 -62.08933 36232 ft 438 kts 342°
2026-04-23 00:46 -23.55154 -62.10554 36230 ft 439 kts 342°
2026-04-23 00:47 -23.49212 -62.12186 36231 ft 439 kts 342°
2026-04-23 00:47 -23.43278 -62.13815 36235 ft 439 kts 342°
2026-04-23 00:48 -23.37365 -62.15436 36230 ft 440 kts 342°
2026-04-23 00:48 -23.31453 -62.17056 36237 ft 440 kts 342°
2026-04-23 00:49 -23.25493 -62.18687 36237 ft 440 kts 342°
2026-04-23 00:49 -23.19568 -62.20308 36234 ft 441 kts 342°
2026-04-23 00:50 -23.13612 -62.21937 36231 ft 441 kts 342°
2026-04-23 00:50 -23.07652 -62.23566 36233 ft 441 kts 342°
2026-04-23 00:51 -23.01692 -62.25195 36238 ft 441 kts 342°
2026-04-23 00:51 -22.95762 -62.26816 36236 ft 441 kts 342°
2026-04-23 00:52 -22.89805 -62.28444 36238 ft 442 kts 342°
2026-04-23 00:52 -22.83839 -62.30074 36239 ft 442 kts 342°
2026-04-23 00:53 -22.77858 -62.31707 36241 ft 442 kts 342°
2026-04-23 00:53 -22.71917 -62.33329 36235 ft 442 kts 342°
2026-04-23 00:54 -22.65953 -62.34958 36241 ft 443 kts 342°
2026-04-23 00:54 -22.59964 -62.36594 36242 ft 443 kts 343°
2026-04-23 00:55 -22.53967 -62.38231 36238 ft 443 kts 343°
2026-04-23 00:55 -22.48018 -62.39856 36241 ft 444 kts 343°
2026-04-23 00:56 -22.42008 -62.41496 36240 ft 444 kts 343°
2026-04-23 00:56 -22.37028 -62.42856 36236 ft 444 kts 343°
2026-04-23 00:57 -22.30037 -62.44764 36238 ft 445 kts 343°
2026-04-23 00:57 -22.24054 -62.46397 36240 ft 445 kts 343°
2026-04-23 00:58 -22.19037 -62.47766 36284 ft 445 kts 343°
2026-04-23 00:58 -22.13063 -62.49403 36280 ft 445 kts 342°
2026-04-23 00:59 -22.07234 -62.51617 36275 ft 443 kts 334°
2026-04-23 00:59 -22.01774 -62.54676 36275 ft 441 kts 327°
2026-04-23 01:00 -21.96536 -62.58101 36271 ft 443 kts 337°
2026-04-23 01:00 -21.90466 -62.59374 36273 ft 448 kts 350°
2026-04-23 01:01 -21.84307 -62.60277 36276 ft 447 kts 346°
2026-04-23 01:01 -21.78366 -62.62199 36269 ft 444 kts 338°
2026-04-23 01:02 -21.72497 -62.64351 36273 ft 446 kts 342°
2026-04-23 01:02 -21.66555 -62.66160 36271 ft 445 kts 340°
2026-04-23 01:03 -21.60651 -62.68187 36271 ft 446 kts 341°
2026-04-23 01:03 -21.54689 -62.70093 36272 ft 446 kts 341°
2026-04-23 01:04 -21.48759 -62.72065 36274 ft 446 kts 341°
2026-04-23 01:04 -21.39883 -62.74960 36276 ft 445 kts 341°
2026-04-23 01:05 -21.33949 -62.76905 36278 ft 445 kts 341°
2026-04-23 01:05 -21.28003 -62.78846 36281 ft 446 kts 341°
2026-04-23 01:06 -21.22086 -62.80781 36283 ft 446 kts 341°
2026-04-23 01:06 -21.16146 -62.82718 36285 ft 446 kts 341°
2026-04-23 01:07 -21.10200 -62.84658 36280 ft 446 kts 341°
2026-04-23 01:07 -21.04243 -62.86598 36278 ft 446 kts 341°
2026-04-23 01:08 -20.98302 -62.88532 36276 ft 446 kts 341°
2026-04-23 01:08 -20.92390 -62.90455 36273 ft 446 kts 341°
2026-04-23 01:09 -20.86437 -62.92390 36276 ft 446 kts 341°
2026-04-23 01:09 -20.80487 -62.94322 36275 ft 446 kts 341°
2026-04-23 01:10 -20.74576 -62.96242 36283 ft 446 kts 341°
2026-04-23 01:10 -20.68617 -62.98169 36297 ft 447 kts 341°
2026-04-23 01:11 -20.62650 -63.00105 36292 ft 447 kts 341°
2026-04-23 01:11 -20.56687 -63.02034 36292 ft 447 kts 341°
2026-04-23 01:12 -20.50763 -63.03950 36293 ft 448 kts 341°
2026-04-23 01:12 -20.44638 -63.05258 36284 ft 452 kts 355°
2026-04-23 01:13 -20.38335 -63.05464 36285 ft 452 kts 356°
2026-04-23 01:13 -20.32077 -63.05692 36280 ft 452 kts 356°
2026-04-23 01:14 -20.25764 -63.05908 36280 ft 453 kts 356°
2026-04-23 01:14 -20.19498 -63.06130 36280 ft 453 kts 356°
2026-04-23 01:15 -20.13193 -63.06349 36281 ft 453 kts 356°
2026-04-23 01:15 -20.06914 -63.06569 36276 ft 453 kts 356°
2026-04-23 01:16 -20.00597 -63.06789 36273 ft 453 kts 356°
2026-04-23 01:16 -19.94281 -63.07009 36272 ft 454 kts 356°
2026-04-23 01:17 -19.87987 -63.07228 36265 ft 454 kts 356°
2026-04-23 01:17 -19.84842 -63.07337 36586 ft 445 kts 356°
2026-04-23 01:17 -19.81716 -63.07446 36508 ft 452 kts 356°
2026-04-23 01:18 -19.78554 -63.07557 36259 ft 457 kts 356°
2026-04-23 01:18 -19.75369 -63.07664 36136 ft 457 kts 356°
2026-04-23 01:18 -19.69046 -63.07878 36207 ft 454 kts 356°
2026-04-23 01:19 -19.65870 -63.08006 36048 ft 457 kts 356°
2026-04-23 01:19 -19.62674 -63.08114 35885 ft 459 kts 356°
2026-04-23 01:19 -19.59507 -63.08213 35725 ft 460 kts 356°
2026-04-23 01:19 -19.56306 -63.08324 35570 ft 460 kts 356°
2026-04-23 01:20 -19.53103 -63.08442 35352 ft 462 kts 356°
2026-04-23 01:20 -19.49873 -63.08554 35113 ft 463 kts 356°
2026-04-23 01:20 -19.43431 -63.08772 34945 ft 463 kts 356°
2026-04-23 01:21 -19.40203 -63.08887 34803 ft 464 kts 356°
2026-04-23 01:21 -19.36973 -63.08999 34667 ft 464 kts 356°
2026-04-23 01:21 -19.33779 -63.09108 34524 ft 465 kts 356°
2026-04-23 01:21 -19.30540 -63.09219 34406 ft 465 kts 356°
2026-04-23 01:22 -19.27296 -63.09332 34279 ft 466 kts 356°
2026-04-23 01:22 -19.24049 -63.09445 34150 ft 467 kts 356°
2026-04-23 01:22 -19.20789 -63.09557 34020 ft 467 kts 356°
2026-04-23 01:22 -19.17540 -63.09669 33879 ft 468 kts 356°
2026-04-23 01:23 -19.14280 -63.09781 33747 ft 468 kts 356°
2026-04-23 01:23 -19.11059 -63.09892 33612 ft 469 kts 356°
2026-04-23 01:23 -19.07796 -63.10005 33484 ft 469 kts 356°
2026-04-23 01:23 -19.04511 -63.10118 33359 ft 470 kts 356°
2026-04-23 01:24 -19.01231 -63.10231 33226 ft 471 kts 357°
2026-04-23 01:24 -18.97992 -63.10343 32999 ft 473 kts 357°
2026-04-23 01:24 -18.94694 -63.10456 32782 ft 474 kts 357°
2026-04-23 01:24 -18.91403 -63.10564 32567 ft 474 kts 357°
2026-04-23 01:25 -18.88102 -63.10670 32358 ft 475 kts 357°
2026-04-23 01:25 -18.84779 -63.10780 32153 ft 476 kts 357°
2026-04-23 01:25 -18.81454 -63.10891 31952 ft 477 kts 357°
2026-04-23 01:25 -18.78137 -63.11001 31759 ft 477 kts 357°
2026-04-23 01:26 -18.74817 -63.11110 31569 ft 478 kts 357°
2026-04-23 01:26 -18.71526 -63.11218 31385 ft 479 kts 357°
2026-04-23 01:26 -18.68190 -63.11329 31204 ft 479 kts 357°
2026-04-23 01:26 -18.64850 -63.11439 31024 ft 480 kts 357°
2026-04-23 01:27 -18.61502 -63.11549 30849 ft 480 kts 357°
2026-04-23 01:27 -18.58157 -63.11659 30676 ft 481 kts 357°
2026-04-23 01:27 -18.54791 -63.11770 30511 ft 482 kts 357°
2026-04-23 01:27 -18.51469 -63.11880 30247 ft 484 kts 357°
2026-04-23 01:28 -18.48106 -63.11990 30080 ft 484 kts 357°
2026-04-23 01:28 -18.44733 -63.12101 29893 ft 484 kts 357°
2026-04-23 01:28 -18.41357 -63.12212 29699 ft 484 kts 357°
2026-04-23 01:28 -18.37997 -63.12323 29525 ft 485 kts 357°
2026-04-23 01:29 -18.35265 -63.12412 29380 ft 485 kts 357°
2026-04-23 01:29 -18.31913 -63.12522 28810 ft 489 kts 357°
2026-04-23 01:29 -18.28473 -63.12635 28111 ft 491 kts 358°
2026-04-23 01:30 -18.25044 -63.12748 27636 ft 491 kts 358°
2026-04-23 01:30 -18.21615 -63.12860 26848 ft 495 kts 358°
2026-04-23 01:30 -18.18200 -63.12973 25709 ft 499 kts 358°
2026-04-23 01:30 -18.14714 -63.13087 24606 ft 502 kts 358°
2026-04-23 01:31 -18.11205 -63.13203 23523 ft 504 kts 358°
2026-04-23 01:31 -18.07701 -63.13319 22297 ft 506 kts 358°
2026-04-23 01:31 -18.04175 -63.13435 21122 ft 507 kts 358°
2026-04-23 01:31 -18.00800 -63.13546 20052 ft 509 kts 358°
2026-04-23 01:32 -17.97271 -63.13662 18972 ft 510 kts 358°
2026-04-23 01:32 -17.94165 -63.13765 18009 ft 511 kts 358°
2026-04-23 01:32 -17.90615 -63.13883 16836 ft 498 kts 358°
2026-04-23 01:32 -17.87514 -63.13985 15773 ft 393 kts 358°
2026-04-23 01:33 -17.85107 -63.14066 14812 ft 308 kts 358°
2026-04-23 01:33 -17.83111 -63.14135 13920 ft 263 kts 359°
2026-04-23 01:33 -17.81367 -63.14198 13125 ft 260 kts 359°
2026-04-23 01:33 -17.79479 -63.14263 12406 ft 294 kts 359°
2026-04-23 01:34 -17.77435 -63.14331 11722 ft 309 kts 359°
2026-04-23 01:34 -17.75246 -63.14402 11040 ft 319 kts 359°
2026-04-23 01:34 -17.72989 -63.14474 10311 ft 328 kts 359°
2026-04-23 01:34 -17.70686 -63.14547 9556 ft 334 kts 359°
2026-04-23 01:35 -17.68358 -63.14619 8826 ft 337 kts 359°
2026-04-23 01:35 -17.66016 -63.14693 8273 ft 334 kts 359°
2026-04-23 01:35 -17.63749 -63.14765 8054 ft 322 kts 359°
2026-04-23 01:35 -17.61575 -63.14837 8051 ft 300 kts 359°
2026-04-23 01:36 -17.59550 -63.14907 8032 ft 283 kts 360°
2026-04-23 01:36 -17.57622 -63.14978 7996 ft 270 kts 359°
2026-04-23 01:36 -17.55761 -63.15061 7669 ft 271 kts 359°
2026-04-23 01:36 -17.53875 -63.15122 7325 ft 263 kts
2026-04-23 01:37 -17.52150 -63.15125 7445 ft 236 kts
2026-04-23 01:37 -17.50513 -63.15070 6989 ft 239 kts
2026-04-23 01:37 -17.48787 -63.14950 6176 ft 255 kts
2026-04-23 01:37 -17.47018 -63.15362 5299 ft 269 kts 335°
2026-04-23 01:38 -17.45618 -63.16620 4684 ft 270 kts 306°
2026-04-23 01:38 -17.44950 -63.18417 4251 ft 263 kts 277°
2026-04-23 01:38 -17.44980 -63.20292 3934 ft 254 kts 264°
2026-04-23 01:38 -17.45318 -63.22098 3609 ft 246 kts 245°
2026-04-23 01:39 -17.46340 -63.23453 3249 ft 239 kts 213°
2026-04-23 01:39 -17.47852 -63.24056 2888 ft 231 kts 182°
2026-04-23 01:39 -17.49397 -63.23788 2547 ft 224 kts 157°
2026-04-23 01:39 -17.50648 -63.23104 2425 ft 196 kts 148°
2026-04-23 01:40 -17.51698 -63.22446 2304 ft 172 kts 148°
2026-04-23 01:40 -17.52621 -63.21784 2368 ft 141 kts 138°
2026-04-23 01:40 -17.53081 -63.21359 2524 ft 131 kts 137°
2026-04-23 01:40 -17.54207 -63.20407 3070 ft 172 kts 140°
2026-04-23 01:41 -17.55175 -63.19737 3071 ft 159 kts 148°
2026-04-23 01:41 -17.56111 -63.19180 2935 ft 152 kts 148°
2026-04-23 01:41 -17.56718 -63.18819 2836 ft 150 kts 148°
2026-04-23 01:41 -17.57615 -63.18281 2691 ft 147 kts 144°
2026-04-23 01:42 -17.58449 -63.17719 2509 ft 138 kts 140°
2026-04-23 01:42 -17.59219 -63.17097 2227 ft 142 kts 144°
2026-04-23 01:42 -17.60065 -63.16492 2007 ft 155 kts 147°
2026-04-23 01:42 -17.61000 -63.15856 1848 ft 155 kts 150°
2026-04-23 01:43 -17.61921 -63.15269 1552 ft 160 kts 149°
2026-04-23 01:43 -17.62842 -63.14638 1361 ft 153 kts 148°
2026-04-23 01:43 -17.63672 -63.14079 1224 ft 126 kts 147°
2026-04-23 01:43 -17.64033 -63.13838 1222 ft 0 kts 149°
2026-04-23 01:44 -17.64077 -63.13819 1222 ft 3 kts 158°
2026-04-23 01:44 -17.64100 -63.13808 1223 ft 0 kts 150°
2026-04-23 01:45 -17.64121 -63.13792 1223 ft 9 kts 141°